Hourly Data Report for October 06, 2019

All times are specified in Local Standard Time (LST). Add 1 hour to adjust for Daylight Saving Time where and when it is observed.

EUREKA CLIMATE
NUNAVUT
Current Station Operator: ECCC - MSC

79°59'21.000" N
85°56'02.000" W
10.00 m
2401199
71613
NEK

Download Data

Hourly Data (October 2019)
Hourly Data Report for October 6, 2019
TIME Temp Definition
°C
Dew Point Definition
°C
Rel Hum Definition
%
Wind Dir Definition
10's deg

Wind Spd Definition
km/h
Visibility Definition
km
Stn Press Definition
kPa
Hmdx Definition


Wind Chill Definition


Weather Definition


00:00 -2.7 -5.0 84 11 8   98.62   -6 LegendNANA
01:00 -4.0 -5.4 90 1 14   98.62   -9 LegendNANA
02:00 -3.9 -5.3 90 1 21   98.60   -10 LegendNANA
03:00 -3.7 -5.2 89 36 13   98.58   -9 LegendNANA
04:00 -4.2 -5.4 91 1 10   98.57   -8 LegendNANA
05:00 -3.9 -4.4 97 28 21   98.58   -10 LegendNANA
06:00 -3.9 -4.3 97 28 17   98.58   -10 LegendNANA
07:00 -3.9 -4.8 94 28 11   98.56   -8 LegendNANA
08:00 -4.4 -5.4 93 31 7   98.60   -8 LegendNANA
09:00 -5.1 -5.7 96 36 3   98.62   -6 LegendNANA
10:00 -4.6 -5.0 97 14 15   98.61   -10 LegendNANA
11:00 -3.9 -4.3 97 14 24   98.62   -11 LegendNANA
12:00 -3.3 -4.4 92 13 25   98.63   -10 LegendNANA
13:00 -2.6 -5.0 84 13 28   98.67   -10 LegendNANA
14:00 -3.1 -4.4 90 12 25   98.70   -10 LegendNANA
15:00 -3.3 -5.2 87 13 26   98.72   -10 LegendNANA
16:00 -3.8 -6.8 79 12 28   98.74   -11 LegendNANA
17:00 -5.5 -8.6 79 11 29   98.75   -14 LegendNANA
18:00 -4.5 -8.9 72 12 34   98.75   -13 LegendNANA
19:00 -4.9 -9.9 68 13 29   98.79   -13 LegendNANA
20:00 -5.0 -9.4 71 12 33   98.81   -13 LegendNANA
21:00 -4.6 -7.7 79 13 35   98.81   -13 LegendNANA
22:00 -4.7 -6.6 86 12 31   98.83   -13 LegendNANA
23:00 -3.9 -4.9 93 15 36   98.84   -12 LegendNANA

Notes on Data Quality.

Legend

  • E = Estimated
  • M = Missing
  • NA = Not Available
Date modified: